Time,TemperatureF,DewpointF,PressureIn,WindDirection,WindDirectionDegrees,WindSpeedMPH,WindSpeedGustMPH,Humidity,HourlyPrecipIn,Conditions,Clouds,dailyrainin,SoftwareType,DateUTC
2013-04-09 00:02:00,24.0,24.0,-100.00,SW,215,1.0,4.0,97,-99.99,,,-99.99,,2013-04-09 06:02:00,
2013-04-09 00:12:00,24.0,23.0,-100.00,SW,235,2.0,6.0,97,-99.99,,,-99.99,,2013-04-09 06:12:00,
2013-04-09 00:20:00,23.0,22.0,-100.00,SW,235,4.0,7.0,97,-99.99,,,-99.99,,2013-04-09 06:20:00,
2013-04-09 00:22:00,24.0,23.0,-100.00,SW,235,4.0,7.0,97,-99.99,,,-99.99,,2013-04-09 06:22:00,
2013-04-09 00:32:00,23.0,22.0,-100.00,SW,235,4.0,7.0,97,-99.99,,,-99.99,,2013-04-09 06:32:00,
2013-04-09 00:42:00,23.0,22.0,-100.00,SW,235,4.0,7.0,97,-99.99,,,-99.99,,2013-04-09 06:42:00,
2013-04-09 00:52:00,23.0,22.0,-100.00,SW,235,4.0,7.0,97,-99.99,,,-99.99,,2013-04-09 06:52:00,
2013-04-09 01:02:00,23.0,22.0,-100.00,SW,235,4.0,7.0,97,-99.99,,,-99.99,,2013-04-09 07:02:00,
2013-04-09 01:12:00,23.0,22.0,-100.00,SW,235,4.0,7.0,97,-99.99,,,-99.99,,2013-04-09 07:12:00,
2013-04-09 03:33:00,17.0,15.0,-100.00,SSE,150,1.0,6.0,94,-99.99,,,-99.99,,2013-04-09 09:33:00,
2013-04-09 03:40:00,15.0,14.0,-100.00,NE,55,2.0,7.0,94,-99.99,,,-99.99,,2013-04-09 09:40:00,
2013-04-09 03:44:00,16.0,15.0,-100.00,ENE,65,4.0,7.0,94,-99.99,,,-99.99,,2013-04-09 09:44:00,
2013-04-09 03:53:00,15.0,14.0,-100.00,NE,55,2.0,7.0,94,-99.99,,,-99.99,,2013-04-09 09:53:00,
2013-04-09 04:03:00,15.0,14.0,-100.00,NE,55,2.0,7.0,94,-99.99,,,-99.99,,2013-04-09 10:03:00,
2013-04-09 04:13:00,15.0,14.0,-100.00,NE,55,2.0,7.0,94,-99.99,,,-99.99,,2013-04-09 10:13:00,
2013-04-09 04:23:00,15.0,14.0,-100.00,NE,55,2.0,7.0,94,-99.99,,,-99.99,,2013-04-09 10:23:00,
2013-04-09 04:32:00,15.0,14.0,-100.00,NE,55,2.0,7.0,94,-99.99,,,-99.99,,2013-04-09 10:32:00,
2013-04-09 05:32:00,12.0,11.0,-100.00,SW,230,5.0,9.0,92,-99.99,,,-99.99,,2013-04-09 11:32:00,
2013-04-09 05:42:00,12.0,10.0,-100.00,SW,225,4.0,9.0,92,-99.99,,,-99.99,,2013-04-09 11:42:00,
2013-04-09 05:52:00,11.0,10.0,-100.00,SW,225,4.0,11.0,92,-99.99,,,-99.99,,2013-04-09 11:52:00,
2013-04-09 06:02:00,10.0,8.0,-100.00,SW,225,6.0,10.0,91,-99.99,,,-99.99,,2013-04-09 12:02:00,
2013-04-09 06:12:00,10.0,8.0,-100.00,SW,225,6.0,10.0,91,-99.99,,,-99.99,,2013-04-09 12:12:00,
2013-04-09 06:20:00,10.0,8.0,-100.00,WSW,245,3.0,9.0,91,-99.99,,,-99.99,,2013-04-09 12:20:00,
2013-04-09 06:22:00,10.0,8.0,-100.00,SW,225,6.0,10.0,91,-99.99,,,-99.99,,2013-04-09 12:22:00,
2013-04-09 06:32:00,10.0,8.0,-100.00,WSW,245,3.0,9.0,91,-99.99,,,-99.99,,2013-04-09 12:32:00,
2013-04-09 06:42:00,10.0,8.0,-100.00,WSW,245,3.0,9.0,91,-99.99,,,-99.99,,2013-04-09 12:42:00,
2013-04-09 06:52:00,10.0,8.0,-100.00,WSW,245,3.0,9.0,91,-99.99,,,-99.99,,2013-04-09 12:52:00,
2013-04-09 07:02:00,10.0,8.0,-100.00,WSW,245,3.0,9.0,91,-99.99,,,-99.99,,2013-04-09 13:02:00,
2013-04-09 07:12:00,10.0,8.0,-100.00,WSW,245,3.0,9.0,91,-99.99,,,-99.99,,2013-04-09 13:12:00,
2013-04-09 08:20:00,9.0,7.0,-100.00,SSE,160,2.0,7.0,90,-99.99,,,-99.99,,2013-04-09 14:20:00,
2013-04-09 08:33:00,9.0,7.0,-100.00,SSE,160,2.0,7.0,90,-99.99,,,-99.99,,2013-04-09 14:33:00,
2013-04-09 08:43:00,9.0,7.0,-100.00,SSE,160,2.0,7.0,90,-99.99,,,-99.99,,2013-04-09 14:43:00,
2013-04-09 08:52:00,9.0,7.0,-100.00,SSE,160,2.0,7.0,90,-99.99,,,-99.99,,2013-04-09 14:52:00,
2013-04-09 09:02:00,9.0,7.0,-100.00,SSE,160,2.0,7.0,90,-99.99,,,-99.99,,2013-04-09 15:02:00,
2013-04-09 09:12:00,9.0,7.0,-100.00,SSE,160,2.0,7.0,90,-99.99,,,-99.99,,2013-04-09 15:12:00,
2013-04-09 10:34:00,11.0,8.0,-100.00,North,10,3.0,7.0,85,-99.99,,,-99.99,,2013-04-09 16:34:00,
2013-04-09 10:40:00,12.0,8.0,-100.00,North,10,4.0,7.0,85,-99.99,,,-99.99,,2013-04-09 16:40:00,
2013-04-09 10:43:00,12.0,8.0,-100.00,North,5,3.0,7.0,85,-99.99,,,-99.99,,2013-04-09 16:43:00,
2013-04-09 10:54:00,12.0,8.0,-100.00,North,10,4.0,7.0,85,-99.99,,,-99.99,,2013-04-09 16:54:00,
2013-04-09 11:02:00,12.0,8.0,-100.00,North,10,4.0,7.0,85,-99.99,,,-99.99,,2013-04-09 17:02:00,
2013-04-09 11:12:00,12.0,8.0,-100.00,North,10,4.0,7.0,85,-99.99,,,-99.99,,2013-04-09 17:12:00,
2013-04-09 11:23:00,12.0,8.0,-100.00,North,10,4.0,7.0,85,-99.99,,,-99.99,,2013-04-09 17:23:00,
2013-04-09 11:32:00,12.0,8.0,-100.00,North,10,4.0,7.0,85,-99.99,,,-99.99,,2013-04-09 17:32:00,
2013-04-09 12:33:00,11.0,6.0,-100.00,ENE,70,2.0,7.0,79,-99.99,,,-99.99,,2013-04-09 18:33:00,
2013-04-09 12:43:00,12.0,7.0,-100.00,North,10,3.0,7.0,77,-99.99,,,-99.99,,2013-04-09 18:43:00,
2013-04-09 12:53:00,12.0,7.0,-100.00,North,10,3.0,7.0,77,-99.99,,,-99.99,,2013-04-09 18:53:00,
2013-04-09 13:03:00,14.0,8.0,-100.00,North,0,2.0,7.0,74,-99.99,,,-99.99,,2013-04-09 19:03:00,
2013-04-09 13:12:00,14.0,8.0,-100.00,North,0,2.0,7.0,74,-99.99,,,-99.99,,2013-04-09 19:12:00,
2013-04-09 13:32:00,17.0,8.0,-100.00,ENE,60,4.0,8.0,67,-99.99,,,-99.99,,2013-04-09 19:32:00,
2013-04-09 13:41:00,17.0,8.0,-100.00,ENE,60,4.0,8.0,67,-99.99,,,-99.99,,2013-04-09 19:41:00,
2013-04-09 13:52:00,15.0,6.0,-100.00,North,5,7.0,12.0,66,-99.99,,,-99.99,,2013-04-09 19:52:00,
2013-04-09 14:02:00,15.0,7.0,-100.00,NE,40,4.0,9.0,69,-99.99,,,-99.99,,2013-04-09 20:02:00,
2013-04-09 14:12:00,15.0,8.0,-100.00,NNE,15,6.0,10.0,70,-99.99,,,-99.99,,2013-04-09 20:12:00,
2013-04-09 14:22:00,16.0,9.0,-100.00,NNE,30,4.0,11.0,71,-99.99,,,-99.99,,2013-04-09 20:22:00,
2013-04-09 14:33:00,16.0,9.0,-100.00,NE,50,3.0,9.0,72,-99.99,,,-99.99,,2013-04-09 20:33:00,
2013-04-09 14:42:00,16.0,9.0,-100.00,North,5,6.0,9.0,70,-99.99,,,-99.99,,2013-04-09 20:42:00,
2013-04-09 14:52:00,17.0,8.0,-100.00,North,0,4.0,8.0,67,-99.99,,,-99.99,,2013-04-09 20:52:00,
2013-04-09 15:02:00,16.0,8.0,-100.00,NE,45,4.0,9.0,68,-99.99,,,-99.99,,2013-04-09 21:02:00,
2013-04-09 15:13:00,16.0,8.0,-100.00,NE,45,4.0,9.0,68,-99.99,,,-99.99,,2013-04-09 21:13:00,
2013-04-09 15:22:00,16.0,8.0,-100.00,NE,45,4.0,9.0,68,-99.99,,,-99.99,,2013-04-09 21:22:00,
2013-04-09 15:33:00,15.0,7.0,-100.00,NNE,30,3.0,10.0,70,-99.99,,,-99.99,,2013-04-09 21:33:00,
2013-04-09 15:42:00,15.0,7.0,-100.00,NNE,30,3.0,10.0,70,-99.99,,,-99.99,,2013-04-09 21:42:00,
2013-04-09 15:52:00,13.0,5.0,-100.00,SSW,210,4.0,9.0,71,-99.99,,,-99.99,,2013-04-09 21:52:00,
2013-04-09 16:03:00,12.0,5.0,-100.00,WSW,245,6.0,12.0,73,-99.99,,,-99.99,,2013-04-09 22:03:00,
2013-04-09 16:12:00,12.0,5.0,-100.00,WSW,240,3.0,9.0,74,-99.99,,,-99.99,,2013-04-09 22:12:00,
2013-04-09 16:23:00,12.0,6.0,-100.00,SW,230,6.0,9.0,74,-99.99,,,-99.99,,2013-04-09 22:23:00,
2013-04-09 16:33:00,13.0,6.0,-100.00,South,180,4.0,9.0,74,-99.99,,,-99.99,,2013-04-09 22:33:00,
2013-04-09 16:42:00,12.0,6.0,-100.00,South,175,2.0,8.0,73,-99.99,,,-99.99,,2013-04-09 22:42:00,
2013-04-09 16:52:00,11.0,5.0,-100.00,SW,235,5.0,9.0,73,-99.99,,,-99.99,,2013-04-09 22:52:00,
2013-04-09 17:02:00,11.0,5.0,-100.00,SW,235,1.0,12.0,74,-99.99,,,-99.99,,2013-04-09 23:02:00,
2013-04-09 17:12:00,11.0,5.0,-100.00,SW,230,4.0,9.0,74,-99.99,,,-99.99,,2013-04-09 23:12:00,
2013-04-09 17:22:00,11.0,4.0,-100.00,SW,230,4.0,9.0,74,-99.99,,,-99.99,,2013-04-09 23:22:00,
2013-04-09 17:32:00,11.0,5.0,-100.00,ENE,65,1.0,7.0,74,-99.99,,,-99.99,,2013-04-09 23:32:00,
2013-04-09 17:42:00,12.0,5.0,-100.00,NNE,30,3.0,7.0,73,-99.99,,,-99.99,,2013-04-09 23:42:00,
2013-04-09 17:52:00,11.0,4.0,-100.00,NE,55,2.0,6.0,73,-99.99,,,-99.99,,2013-04-09 23:52:00,
2013-04-09 18:03:00,11.0,4.0,-100.00,NE,55,2.0,6.0,73,-99.99,,,-99.99,,2013-04-10 00:03:00,
2013-04-09 18:12:00,11.0,4.0,-100.00,NE,55,2.0,6.0,73,-99.99,,,-99.99,,2013-04-10 00:12:00,
2013-04-09 18:22:00,11.0,4.0,-100.00,North,10,3.0,6.0,74,-99.99,,,-99.99,,2013-04-10 00:22:00,
2013-04-09 18:32:00,8.0,2.0,-100.00,SW,235,6.0,9.0,76,-99.99,,,-99.99,,2013-04-10 00:32:00,
2013-04-09 18:40:00,7.0,2.0,-100.00,SW,220,6.0,12.0,80,-99.99,,,-99.99,,2013-04-10 00:40:00,
2013-04-09 18:42:00,8.0,2.0,-100.00,South,190,4.0,9.0,78,-99.99,,,-99.99,,2013-04-10 00:42:00,
2013-04-09 18:52:00,7.0,2.0,-100.00,SW,220,6.0,12.0,80,-99.99,,,-99.99,,2013-04-10 00:52:00,
2013-04-09 19:02:00,7.0,2.0,-100.00,SW,220,6.0,12.0,80,-99.99,,,-99.99,,2013-04-10 01:02:00,
2013-04-09 19:12:00,7.0,2.0,-100.00,SW,220,6.0,12.0,80,-99.99,,,-99.99,,2013-04-10 01:12:00,
2013-04-09 19:23:00,7.0,2.0,-100.00,SW,220,6.0,12.0,80,-99.99,,,-99.99,,2013-04-10 01:23:00,
2013-04-09 19:32:00,7.0,2.0,-100.00,SW,220,6.0,12.0,80,-99.99,,,-99.99,,2013-04-10 01:32:00,
2013-04-09 20:33:00,5.0,1.0,-100.00,South,170,2.0,6.0,83,-99.99,,,-99.99,,2013-04-10 02:33:00,
2013-04-09 20:43:00,4.0,0.0,-100.00,WSW,245,3.0,6.0,83,-99.99,,,-99.99,,2013-04-10 02:43:00,
2013-04-09 20:53:00,4.0,0.0,-100.00,SW,220,4.0,6.0,83,-99.99,,,-99.99,,2013-04-10 02:53:00,
2013-04-09 21:03:00,4.0,0.0,-100.00,SSW,205,2.0,6.0,84,-99.99,,,-99.99,,2013-04-10 03:03:00,
2013-04-09 21:12:00,4.0,0.0,-100.00,SW,225,4.0,7.0,84,-99.99,,,-99.99,,2013-04-10 03:12:00,
2013-04-09 21:22:00,4.0,0.0,-100.00,SW,230,4.0,6.0,85,-99.99,,,-99.99,,2013-04-10 03:22:00,
2013-04-09 21:32:00,4.0,0.0,-100.00,South,185,3.0,6.0,85,-99.99,,,-99.99,,2013-04-10 03:32:00,
2013-04-09 21:43:00,4.0,0.0,-100.00,SW,230,2.0,6.0,85,-99.99,,,-99.99,,2013-04-10 03:43:00,
2013-04-09 21:52:00,4.0,0.0,-100.00,SW,225,3.0,5.0,85,-99.99,,,-99.99,,2013-04-10 03:52:00,
2013-04-09 22:03:00,3.0,0.0,-100.00,SW,230,2.0,6.0,85,-99.99,,,-99.99,,2013-04-10 04:03:00,
2013-04-09 22:13:00,3.0,0.0,-100.00,SW,230,1.0,6.0,85,-99.99,,,-99.99,,2013-04-10 04:13:00,
2013-04-09 22:23:00,3.0,0.0,-100.00,SW,225,0.0,2.0,85,-99.99,,,-99.99,,2013-04-10 04:23:00,
2013-04-09 22:33:00,3.0,0.0,-100.00,North,355,1.0,2.0,85,-99.99,,,-99.99,,2013-04-10 04:33:00,
2013-04-09 22:42:00,3.0,0.0,-100.00,NE,55,2.0,4.0,85,-99.99,,,-99.99,,2013-04-10 04:42:00,
2013-04-09 22:52:00,3.0,0.0,-100.00,NE,45,1.0,2.0,85,-99.99,,,-99.99,,2013-04-10 04:52:00,
2013-04-09 23:02:00,2.0,-1.0,-100.00,ENE,60,2.0,4.0,85,-99.99,,,-99.99,,2013-04-10 05:02:00,
2013-04-09 23:13:00,2.0,-1.0,-100.00,ENE,60,2.0,4.0,86,-99.99,,,-99.99,,2013-04-10 05:13:00,
2013-04-09 23:22:00,2.0,-1.0,-100.00,NE,55,3.0,4.0,86,-99.99,,,-99.99,,2013-04-10 05:22:00,
2013-04-09 23:32:00,2.0,-1.0,-100.00,NE,55,2.0,4.0,86,-99.99,,,-99.99,,2013-04-10 05:32:00,
2013-04-09 23:42:00,2.0,-1.0,-100.00,ENE,60,0.0,2.0,86,-99.99,,,-99.99,,2013-04-10 05:42:00,
2013-04-09 23:52:00,1.0,-2.0,-100.00,ENE,65,1.0,2.0,86,-99.99,,,-99.99,,2013-04-10 05:52:00,